Location: Newark
(42.9858°N, 0.6717°E)
Time: 04:04:28
(UTC+00:00)

X-37B - Visible Passes

Search period start: 25 September 2020 00:00
Search period end: 05 October 2020 00:00
Orbit: 386 x 387 km, 45.0° (Epoch: 18 September)

Date Brightness Start Highest point End Pass type
(mag) Time Alt. Az. Time Alt. Az. Time Alt. Az.
25 Sep 2.4 04:36:50 17° SSW 04:36:50 17° SSW 04:38:42 10° S visible
01 Oct 2.8 18:32:37 10° SSE 18:33:50 12° SE 18:34:08 12° SE visible
02 Oct 1.7 19:08:34 10° SW 19:10:54 31° S 19:10:54 31° S visible
03 Oct 2.2 18:10:38 10° SSW 18:13:04 20° SSE 18:15:15 11° E visible
03 Oct 2.9 19:46:13 10° WSW 19:47:32 22° WSW 19:47:32 22° WSW visible
04 Oct 0.7 18:47:44 10° WSW 18:50:51 57° SSE 18:51:46 38° E visible
